Location: Lake Lucerne
(45.5315°N, 88.8489°W)
Time: 18:52:23
(UTC-06:00)

Amateur Radio Satellites - All Passes

Search period start: 11 December 2017 18:22
Search period end: 12 December 2017 18:22
Location: Lake Lucerne, 45.5315°N, 88.8489°W

Satellite Date Start Highest point End Downlink Frequencies (MHz)
Time Altitude Azimuth
XW-2C 11 Dec 18:27:21 18:28:58 12° 271° (W) 18:30:34 145.795 - 145.815
nSIGHT-1 11 Dec 18:28:59 18:32:11 63° 212° (SSW) 18:35:22 .
ZACube-1 11 Dec 18:31:00 18:34:38 31° 68° (ENE) 18:38:18 437.345
CUTE-I 11 Dec 18:31:39 18:35:54 24° 267° (W) 18:40:11 437.470
FO-29 11 Dec 18:40:44 18:43:04 12° 80° (E) 18:45:19 435.910
Oscar 11 11 Dec 18:56:27 19:00:22 35° 69° (ENE) 19:04:18 .
ISS 11 Dec 18:58:14 19:01:24 46° 216° (SW) 19:04:33 437.550
SEEDS 11 Dec 18:58:41 19:02:38 39° 263° (W) 19:06:37 437.485
HO-68 11 Dec 19:04:39 19:11:10 36° 264° (W) 19:17:43 435.675
STARS 11 Dec 19:05:53 19:09:21 24° 295° (WNW) 19:12:49 437.465
AO-73 11 Dec 19:06:37 19:10:42 65° 74° (ENE) 19:14:48 145.935
O/OREOS (USA 219) 11 Dec 19:13:48 19:17:58 37° 253° (WSW) 19:22:05 437.305
CUTE 1.7 + AOD 2 11 Dec 19:16:16 19:19:04 17° 269° (W) 19:21:55 437.475
PCSat 11 Dec 19:17:56 19:23:16 66° 118° (ESE) 19:28:40 145.827
STRAND 1 11 Dec 19:23:53 19:28:59 65° 102° (ESE) 19:34:01 437.568
CUBEBUG 2 11 Dec 19:28:10 19:31:21 20° 267° (W) 19:34:30 437.445
AAUSAT CUBESAT 2 11 Dec 19:28:10 19:32:07 41° 262° (W) 19:36:07 437.432
DELFI C3 11 Dec 19:28:47 19:31:16 16° 64° (ENE) 19:33:46 145.870
XW-2A 11 Dec 19:31:07 19:34:02 28° 264° (W) 19:36:59 145.665 - 145.685
UWE-3 11 Dec 19:34:28 19:38:07 29° 265° (W) 19:41:45 435.000/436.395/437.385
BEESAT 3 11 Dec 20:01:19 20:04:10 19° 113° (ESE) 20:07:02 437.485
ZACube-1 11 Dec 20:07:33 20:10:57 24° 266° (W) 20:14:22 437.345
Max Valier Satellite 11 Dec 20:20:23 20:23:45 36° 71° (ENE) 20:27:08 145.860
FO-29 11 Dec 20:22:28 20:29:41 69° 101° (E) 20:35:59 435.910
RS-15 11 Dec 20:30:35 20:41:02 31° 10° (N) 20:51:04 29.354- 29.394
Oscar 11 11 Dec 20:33:06 20:36:34 24° 267° (W) 20:40:05 .
BEESAT 2 11 Dec 20:34:21 20:35:57 12° 109° (ESE) 20:37:33 435.950
AO-73 11 Dec 20:45:54 20:47:24 12° 272° (W) 20:48:53 145.935
TIGRISAT 11 Dec 20:52:52 20:55:56 19° 92° (E) 20:59:01 435.000
UNISAT 6 11 Dec 20:55:00 20:58:20 21° 93° (E) 21:01:42 437.425
EO-88 11 Dec 20:56:08 20:59:45 69° 75° (ENE) 21:03:24 145.990 - 145.960
DELFI C3 11 Dec 21:01:46 21:05:38 48° 261° (W) 21:09:32 145.870
PCSat 11 Dec 21:02:40 21:07:08 25° 318° (NW) 21:11:38 145.827
STRAND 1 11 Dec 21:04:09 21:07:39 19° 300° (WNW) 21:11:08 437.568
BEESAT 3 11 Dec 21:37:31 21:41:23 47° 311° (NW) 21:45:16 437.485
LO-87 11 Dec 21:38:07 21:41:08 27° 69° (ENE) 21:44:10 145.935 - 145.965
AO-85 11 Dec 21:50:28 21:53:19 19° 112° (ESE) 21:56:15 145.980
Max Valier Satellite 11 Dec 21:55:20 21:57:42 16° 268° (W) 22:00:06 145.860
ESTCUBE 1 11 Dec 22:08:03 22:12:24 51° 71° (ENE) 22:16:48 437.505/2401.250
FO-29 11 Dec 22:08:15 22:14:01 26° 303° (WNW) 22:19:17 435.910
BEESAT 2 11 Dec 22:09:03 22:13:04 75° 307° (NW) 22:17:09 435.950
AIST 2D 11 Dec 22:19:32 22:21:56 17° 92° (E) 22:24:18 435.315
VELOX 1 11 Dec 22:22:29 22:24:35 13° 59° (ENE) 22:26:41 145.980
TIGRISAT 11 Dec 22:28:44 22:32:50 44° 289° (WNW) 22:36:59 435.000
UNISAT 6 11 Dec 22:31:10 22:35:10 39° 290° (WNW) 22:39:14 437.425
PRISM 11 Dec 22:35:11 22:39:19 72° 103° (ESE) 22:43:23 437.425
RS-15 11 Dec 22:44:57 22:56:45 58° 42° (NE) 23:07:54 29.354- 29.394
QB50P2 11 Dec 23:01:21 23:04:29 20° 93° (E) 23:07:37 145.880/145.840
LO-87 11 Dec 23:11:49 23:14:32 21° 266° (W) 23:17:16 145.935 - 145.965
DUCHIFAT 1 11 Dec 23:12:04 23:14:58 18° 92° (E) 23:17:50 145.980
BEESAT 3 11 Dec 23:19:19 23:19:53 10° 332° (NNW) 23:20:28 437.485
SO-50 11 Dec 23:24:42 23:28:41 27° 41° (NE) 23:32:42 436.795
SPROUT 11 Dec 23:25:56 23:30:11 82° 75° (ENE) 23:34:27 437.525
DX 1 11 Dec 23:28:17 23:30:38 14° 60° (ENE) 23:33:00 434.975-435.025
AO-85 11 Dec 23:29:33 23:33:21 44° 312° (NW) 23:37:23 145.980
NANOSAT C BR1 11 Dec 23:35:51 23:39:44 36° 97° (E) 23:43:37 145.865
ESTCUBE 1 11 Dec 23:46:26 23:49:30 18° 269° (W) 23:52:35 437.505/2401.250
EO-79 11 Dec 23:48:46 23:52:55 57° 101° (E) 23:57:04 145.935-145.965
BEESAT 2 11 Dec 23:49:22 23:51:30 14° 327° (NNW) 23:53:39 435.950
AIST 2D 11 Dec 23:51:57 23:55:12 33° 289° (WNW) 23:58:24 435.315
FALCONSAT 3 11 Dec 23:52:21 23:53:52 12° 164° (SSE) 23:55:23 435.103
50 SAT 11 Dec 23:52:58 23:55:08 17° 66° (ENE) 23:57:18 437.505
VELOX 1 11 Dec 23:55:57 00:00:24 79° 255° (WSW) 00:04:54 145.980
BUGSAT 1 12 Dec 00:05:46 00:08:17 16° 92° (E) 00:10:48 437.445
POLYITAN 1 12 Dec 00:10:49 00:15:03 83° 282° (WNW) 00:19:16 437.675
PRISM 12 Dec 00:12:17 00:14:00 12° 300° (WNW) 00:15:43 437.425
QB50P2 12 Dec 00:36:29 00:40:25 39° 290° (WNW) 00:44:21 145.880/145.840
DUCHIFAT 1 12 Dec 00:46:50 00:50:50 44° 289° (WNW) 00:54:48 145.980
UKube-1 12 Dec 00:53:07 00:57:21 60° 73° (ENE) 01:01:39 .
RS-15 12 Dec 00:57:59 01:09:07 52° 248° (WSW) 01:19:42 29.354- 29.394
DX 1 12 Dec 01:01:54 01:06:17 69° 258° (WSW) 01:10:40 434.975-435.025
SO-50 12 Dec 01:04:51 01:09:23 52° 240° (WSW) 01:13:58 436.795
NANOSAT C BR1 12 Dec 01:11:58 01:15:15 22° 295° (WNW) 01:18:31 145.865
AO-85 12 Dec 01:13:58 01:14:55 11° 335° (NNW) 01:15:52 145.980
Oscar 19 12 Dec 01:16:12 01:21:17 51° 100° (E) 01:26:20 437.125/150
BEESAT 12 Dec 01:17:58 01:21:25 20° 62° (ENE) 01:24:52 436.000
AO-91 12 Dec 01:22:58 01:26:30 53° 101° (E) 01:29:49 145.960
50 SAT 12 Dec 01:24:11 01:26:55 26° 263° (W) 01:29:39 437.505
MOZHAYETS 4 12 Dec 01:24:18 01:28:12 29° 66° (ENE) 01:32:06
EO-79 12 Dec 01:25:44 01:28:14 16° 298° (WNW) 01:30:43 145.935-145.965
FALCONSAT 3 12 Dec 01:29:43 01:32:10 17° 180° (S) 01:34:38 435.103
Gurwin Techsat 1B 12 Dec 01:32:42 01:37:55 52° 100° (E) 01:43:05 435.225
BUGSAT 1 12 Dec 01:40:01 01:43:53 46° 289° (WNW) 01:47:45 437.445
YUBILEINY 12 Dec 01:42:42 01:49:06 23° 78° (ENE) 01:55:32 435.215
ITUPSAT 1 12 Dec 01:43:10 01:47:23 33° 66° (ENE) 01:51:37 437.325
PCSat 12 Dec 02:20:57 02:24:48 19° 36° (NE) 02:28:39 145.827
ITAMSAT 1 12 Dec 02:23:35 02:25:46 13° 88° (E) 02:27:56 435.822/435.867
UKube-1 12 Dec 02:31:28 02:33:46 14° 270° (W) 02:36:05 .
CUBESAT XI-V 12 Dec 02:38:46 02:43:05 39° 69° (ENE) 02:47:27 437.345
AO-7 12 Dec 02:49:46 02:57:29 39° 98° (E) 03:05:11 .
BEESAT 12 Dec 02:54:10 02:58:49 53° 260° (W) 03:03:28 436.000
Oscar 19 12 Dec 02:56:10 03:00:17 24° 298° (WNW) 03:04:23 437.125/150
MOZHAYETS 4 12 Dec 03:01:11 03:05:15 32° 264° (W) 03:09:22
AO-91 12 Dec 03:01:22 03:02:28 11° 300° (WNW) 03:03:33 145.960
M-CUBED/EXP-1 PRIME 12 Dec 03:05:42 03:09:53 34° 101° (E) 03:13:51 437.505
FALCONSAT 3 12 Dec 03:08:57 03:10:29 12° 195° (SSW) 03:12:01 435.103
Gurwin Techsat 1B 12 Dec 03:13:19 03:17:31 24° 298° (WNW) 03:21:43 435.225
ITUPSAT 1 12 Dec 03:20:59 03:25:11 31° 264° (W) 03:29:24 437.325
YUBILEINY 12 Dec 03:35:59 03:44:49 82° 279° (W) 03:53:45 435.215
KKS-1 12 Dec 03:36:03 03:40:02 33° 68° (ENE) 03:44:02 437.445
ITAMSAT 1 12 Dec 04:00:42 04:05:56 87° 281° (W) 04:11:06 435.822/435.867
PCSat 12 Dec 04:03:34 04:09:02 84° 58° (ENE) 04:14:27 145.827
BEESAT 3 12 Dec 04:14:46 04:18:08 26° 43° (NE) 04:21:27 437.485
CUBESAT XI-V 12 Dec 04:16:47 04:20:33 24° 267° (W) 04:24:23 437.345
STARS 12 Dec 04:27:27 04:31:38 44° 70° (ENE) 04:35:49 437.465
AO-85 12 Dec 04:38:45 04:40:16 11° 26° (NNE) 04:41:48 145.980
M-CUBED/EXP-1 PRIME 12 Dec 04:40:07 04:44:07 30° 300° (WNW) 04:47:57 437.505
AO-7 12 Dec 04:42:24 04:50:28 54° 298° (WNW) 04:58:31 .
DOVE 4 12 Dec 04:43:53 04:48:26 55° 100° (E) 04:52:42 437.250
BEESAT 2 12 Dec 04:47:28 04:50:29 20° 39° (NE) 04:53:28 435.950
LilacSat-2 12 Dec 04:54:52 04:56:45 13° 90° (E) 04:58:37 437.200
FO-29 12 Dec 04:56:53 04:59:01 11° 44° (NE) 05:01:09 435.910
STRAND 1 12 Dec 05:05:07 05:08:25 18° 59° (ENE) 05:11:44 437.568
CUTE-I 12 Dec 05:06:15 05:09:36 17° 90° (E) 05:12:56 437.470
XW-2D 12 Dec 05:12:33 05:15:24 20° 93° (E) 05:18:14 145.860 - 145.880
KKS-1 12 Dec 05:12:47 05:16:36 27° 265° (W) 05:20:26 437.445
XW-2B 12 Dec 05:27:56 05:31:17 27° 96° (E) 05:34:36 145.730 - 145.750
KAITUO 1B 12 Dec 05:28:32 05:31:26 20° 93° (E) 05:34:19 145.475/437.950
NUDT-PHONESAT 12 Dec 05:30:12 05:33:02 20° 94° (E) 05:35:51 437.300
YUBILEINY 12 Dec 05:37:02 05:43:10 20° 303° (WNW) 05:49:21 435.215
ITAMSAT 1 12 Dec 05:41:59 05:44:37 14° 304° (NW) 05:47:15 435.822/435.867
XW-2F 12 Dec 05:42:30 05:46:06 38° 98° (E) 05:49:41 145.980 - 146.000
PCSat 12 Dec 05:48:39 05:51:41 15° 256° (WSW) 05:54:44 145.827
BEESAT 3 12 Dec 05:52:06 05:55:46 37° 242° (WSW) 05:59:20 437.485
XW-2C 12 Dec 05:54:47 05:58:37 58° 100° (E) 06:02:24 145.795 - 145.815
STARS 12 Dec 06:04:57 06:08:10 20° 267° (W) 06:11:23 437.465
AO-85 12 Dec 06:17:23 06:21:50 42° 47° (NE) 06:26:37 145.980
DOVE 4 12 Dec 06:22:34 06:25:38 18° 299° (WNW) 06:28:35 437.250
BEESAT 2 12 Dec 06:24:35 06:28:34 61° 238° (WSW) 06:32:29 435.950
LilacSat-2 12 Dec 06:27:31 06:31:19 52° 287° (WNW) 06:35:06 437.200
NO-84 12 Dec 06:28:38 06:29:50 12° 125° (SE) 06:31:04 435.350 FM
HO-68 12 Dec 06:28:59 06:35:43 41° 98° (E) 06:42:23 435.675
FO-29 12 Dec 06:34:54 06:42:06 44° 64° (ENE) 06:49:25 435.910
AO-7 12 Dec 06:37:06 06:41:25 15° 320° (NW) 06:45:45 .
SEEDS 12 Dec 06:39:59 06:43:43 29° 95° (E) 06:47:24 437.485
STRAND 1 12 Dec 06:41:55 06:47:02 72° 257° (WSW) 06:52:10 437.568
CUTE-I 12 Dec 06:44:51 06:50:11 71° 287° (WNW) 06:55:28 437.470
XW-2D 12 Dec 06:46:08 06:49:38 34° 290° (WNW) 06:53:07 145.860 - 145.880
XW-2A 12 Dec 06:50:52 06:52:42 14° 92° (E) 06:54:32 145.665 - 145.685
AO-73 12 Dec 06:54:13 06:55:23 11° 88° (E) 06:56:33 145.935
CUTE 1.7 + AOD 2 12 Dec 06:56:51 07:01:09 72° 102° (ESE) 07:05:25 437.475
KAITUO 1B 12 Dec 07:02:03 07:05:27 31° 290° (WNW) 07:08:49 145.475/437.950
XW-2B 12 Dec 07:02:11 07:05:21 24° 292° (WNW) 07:08:28 145.730 - 145.750
NUDT-PHONESAT 12 Dec 07:03:34 07:06:55 31° 290° (WNW) 07:10:15 437.300
AAUSAT CUBESAT 2 12 Dec 07:07:58 07:11:27 25° 94° (E) 07:14:54 437.432
CUBEBUG 2 12 Dec 07:14:47 07:18:59 66° 101° (E) 07:23:17 437.445
XW-2F 12 Dec 07:17:16 07:19:56 18° 295° (WNW) 07:22:36 145.980 - 146.000
UWE-3 12 Dec 07:20:35 07:24:41 43° 98° (E) 07:28:51 435.000/436.395/437.385
XW-2C 12 Dec 07:30:29 07:32:19 13° 298° (WNW) 07:34:08 145.795 - 145.815
O/OREOS (USA 219) 12 Dec 07:50:06 07:53:15 19° 101° (E) 07:56:25 437.305
ZACube-1 12 Dec 07:52:04 07:56:17 50° 99° (E) 08:00:33 437.345
TIGRISAT 12 Dec 07:53:45 07:57:02 22° 65° (ENE) 08:00:18 435.000
UNISAT 6 12 Dec 07:55:58 07:59:28 25° 66° (ENE) 08:02:57 437.425
AO-85 12 Dec 07:57:56 08:02:12 32° 244° (WSW) 08:06:43 145.980
NO-84 12 Dec 08:03:22 08:06:30 78° 323° (NW) 08:09:55 435.350 FM
SEEDS 12 Dec 08:15:41 08:19:20 28° 292° (WNW) 08:22:58 437.485
HO-68 12 Dec 08:16:46 08:23:28 44° 297° (WNW) 08:30:07 435.675
Oscar 11 12 Dec 08:16:48 08:21:05 53° 100° (E) 08:25:21 .
FO-29 12 Dec 08:19:39 08:27:00 47° 264° (W) 08:34:34 435.910
XW-2A 12 Dec 08:22:21 08:25:33 37° 288° (WNW) 08:28:45 145.665 - 145.685
CUTE-I 12 Dec 08:27:23 08:29:17 12° 306° (NW) 08:31:11 437.470
AO-73 12 Dec 08:27:47 08:32:06 78° 286° (WNW) 08:36:30 145.935
CUTE 1.7 + AOD 2 12 Dec 08:34:20 08:36:25 13° 299° (WNW) 08:38:28 437.475
DELFI C3 12 Dec 08:36:56 08:39:37 17° 92° (E) 08:42:17 145.870
AAUSAT CUBESAT 2 12 Dec 08:43:13 08:46:54 31° 292° (WNW) 08:50:34 437.432
CUBEBUG 2 12 Dec 08:52:58 08:55:07 14° 298° (WNW) 08:57:17 437.445
UWE-3 12 Dec 08:57:45 09:00:52 20° 295° (WNW) 09:04:02 435.000/436.395/437.385
Max Valier Satellite 12 Dec 09:21:15 09:24:43 36° 97° (E) 09:28:11 145.860
PRISM 12 Dec 09:25:54 09:30:01 68° 74° (ENE) 09:34:11 437.425
O/OREOS (USA 219) 12 Dec 09:27:48 09:32:16 51° 299° (WNW) 09:36:45 437.305
ZACube-1 12 Dec 09:29:16 09:32:13 18° 296° (WNW) 09:35:11 437.345
TIGRISAT 12 Dec 09:29:28 09:33:31 39° 262° (W) 09:37:31 435.000
UNISAT 6 12 Dec 09:32:07 09:36:03 33° 263° (W) 09:39:57 437.425
POLYITAN 1 12 Dec 09:32:55 09:34:04 11° 59° (ENE) 09:35:13 437.675
NO-84 12 Dec 09:41:34 09:44:14 22° 346° (NNW) 09:47:05 435.350 FM
Oscar 11 12 Dec 09:53:56 09:56:49 17° 297° (WNW) 09:59:41 .
EO-88 12 Dec 09:55:43 09:59:23 66° 101° (ESE) 10:03:01 145.990 - 145.960
QB50P2 12 Dec 09:56:05 09:59:13 21° 65° (ENE) 10:02:21 145.880/145.840
DUCHIFAT 1 12 Dec 10:06:02 10:08:55 18° 63° (ENE) 10:11:48 145.980
HO-68 12 Dec 10:08:32 10:09:23 10° 319° (NW) 10:10:14 435.675
DELFI C3 12 Dec 10:10:49 10:14:32 40° 289° (WNW) 10:18:13 145.870
AIST 2D 12 Dec 10:27:20 10:30:48 69° 259° (WSW) 10:34:20 435.315
NANOSAT C BR1 12 Dec 10:29:44 10:33:33 35° 69° (ENE) 10:37:22 145.865
LO-87 12 Dec 10:35:32 10:38:27 24° 95° (E) 10:41:20 145.935 - 145.965
EO-79 12 Dec 10:42:51 10:46:57 55° 72° (ENE) 10:51:04 145.935-145.965
Max Valier Satellite 12 Dec 10:55:42 10:58:16 18° 294° (WNW) 11:00:50 145.860
BUGSAT 1 12 Dec 10:57:47 11:00:17 16° 63° (ENE) 11:02:47 437.445
Oscar 19 12 Dec 10:59:02 11:01:44 14° 57° (ENE) 11:04:27 437.125/150
PRISM 12 Dec 11:04:12 11:05:44 12° 271° (W) 11:07:16 437.425
POLYITAN 1 12 Dec 11:04:59 11:09:11 85° 260° (W) 11:13:24 437.675
nSIGHT-1 12 Dec 11:10:03 11:10:31 10° 131° (SE) 11:10:59 .
SPROUT 12 Dec 11:11:15 11:12:42 12° 89° (E) 11:14:10 437.525
Gurwin Techsat 1B 12 Dec 11:18:46 11:22:02 17° 57° (ENE) 11:25:18 435.225
NO-84 12 Dec 11:19:50 11:22:28 19° 8° (N) 11:25:14 435.350 FM
QB50P2 12 Dec 11:30:47 11:34:45 40° 262° (W) 11:38:43 145.880/145.840
EO-88 12 Dec 11:31:31 11:32:29 11° 299° (WNW) 11:33:28 145.990 - 145.960
ESTCUBE 1 12 Dec 11:34:33 11:39:09 83° 102° (ESE) 11:43:41 437.505/2401.250
DUCHIFAT 1 12 Dec 11:40:15 11:44:15 45° 261° (W) 11:48:16 145.980
ISS 12 Dec 11:40:27 11:42:32 16° 134° (SE) 11:44:37 437.550
VELOX 1 12 Dec 11:44:42 11:47:31 17° 91° (E) 11:50:20 145.980
YUBILEINY 12 Dec 11:49:11 11:53:04 13° 50° (NE) 11:56:55 435.215
AO-7 12 Dec 12:02:43 12:07:49 18° 43° (NE) 12:12:54 .
NANOSAT C BR1 12 Dec 12:06:05 12:09:20 22° 266° (W) 12:12:37 145.865
LO-87 12 Dec 12:08:54 12:11:46 23° 292° (WNW) 12:14:37 145.935 - 145.965
AO-91 12 Dec 12:20:38 12:25:35 65° 74° (ENE) 12:30:05 145.960
EO-79 12 Dec 12:20:45 12:23:02 14° 270° (W) 12:25:21 145.935-145.965
BUGSAT 1 12 Dec 12:31:20 12:35:16 50° 260° (W) 12:39:13 437.445
Oscar 19 12 Dec 12:35:11 12:40:19 89° 280° (W) 12:45:31 437.125/150
nSIGHT-1 12 Dec 12:42:59 12:46:11 69° 147° (SSE) 12:49:24 .
SPROUT 12 Dec 12:44:50 12:49:04 71° 285° (WNW) 12:53:17 437.525
DX 1 12 Dec 12:48:46 12:51:37 17° 92° (E) 12:54:27 434.975-435.025
Gurwin Techsat 1B 12 Dec 12:55:59 13:01:19 81° 256° (WSW) 13:06:40 435.225
NO-84 12 Dec 12:56:54 13:00:28 41° 28° (NNE) 13:04:15 435.350 FM
ESTCUBE 1 12 Dec 13:13:14 13:15:17 13° 301° (WNW) 13:17:20 437.505/2401.250
RS-15 12 Dec 13:13:29 13:22:35 25° 100° (E) 13:31:37 29.354- 29.394
ISS 12 Dec 13:15:21 13:18:38 83° 331° (NNW) 13:21:57 437.550
VELOX 1 12 Dec 13:19:58 13:24:17 53° 288° (WNW) 13:28:33 145.980
ITAMSAT 1 12 Dec 13:42:41 13:46:58 27° 63° (ENE) 13:51:16 435.822/435.867
YUBILEINY 12 Dec 13:43:32 13:52:15 57° 75° (ENE) 14:00:51 435.215
AO-7 12 Dec 13:50:52 13:59:02 65° 65° (ENE) 14:07:15 .
M-CUBED/EXP-1 PRIME 12 Dec 13:52:19 13:56:32 58° 66° (ENE) 14:01:01 437.505
AO-91 12 Dec 13:59:20 14:02:19 16° 268° (W) 14:05:08 145.960
50 SAT 12 Dec 14:09:31 14:12:34 45° 287° (WNW) 14:15:34 437.505
UKube-1 12 Dec 14:13:29 14:17:49 80° 101° (ESE) 14:22:08 .
DOVE 4 12 Dec 14:16:39 14:18:31 12° 57° (ENE) 14:20:20 437.250
Oscar 19 12 Dec 14:18:30 14:20:22 12° 273° (W) 14:22:15 437.125/150
nSIGHT-1 12 Dec 14:19:38 14:22:35 32° 347° (NNW) 14:25:33 .
DX 1 12 Dec 14:23:51 14:28:05 50° 289° (WNW) 14:32:17 434.975-435.025
NO-84 12 Dec 14:34:08 14:37:46 39° 224° (SW) 14:41:36 435.350 FM
Gurwin Techsat 1B 12 Dec 14:40:42 14:42:05 11° 274° (W) 14:43:28 435.225
BEESAT 12 Dec 14:51:57 14:56:13 32° 96° (E) 15:00:27 436.000
ISS 12 Dec 14:52:30 14:55:27 29° 351° (N) 14:58:24 437.550
MOZHAYETS 4 12 Dec 14:53:06 14:57:35 48° 99° (E) 15:02:03
ITUPSAT 1 12 Dec 15:18:16 15:22:58 55° 101° (E) 15:27:39 437.325
RS-15 12 Dec 15:20:59 15:33:21 85° 123° (ESE) 15:45:35 29.354- 29.394
ITAMSAT 1 12 Dec 15:21:11 15:26:11 46° 261° (W) 15:31:12 435.822/435.867
SO-50 12 Dec 15:21:24 15:25:14 29° 115° (ESE) 15:29:06 436.795
M-CUBED/EXP-1 PRIME 12 Dec 15:28:32 15:31:17 16° 265° (W) 15:34:09 437.505
YUBILEINY 12 Dec 15:40:56 15:48:37 35° 276° (W) 15:56:16 435.215
AO-7 12 Dec 15:45:08 15:52:17 32° 265° (W) 15:59:32 .
DOVE 4 12 Dec 15:50:03 15:55:19 73° 75° (ENE) 16:00:28 437.250
UKube-1 12 Dec 15:51:27 15:53:12 12° 302° (WNW) 15:54:57 .
nSIGHT-1 12 Dec 15:56:32 15:59:23 28° 7° (N) 16:02:13 .
XW-2D 12 Dec 15:56:35 15:58:37 14° 63° (ENE) 16:00:41 145.860 - 145.880
CUBESAT XI-V 12 Dec 16:09:41 16:14:25 71° 101° (ESE) 16:19:06 437.345
KAITUO 1B 12 Dec 16:11:13 16:13:16 14° 63° (ENE) 16:15:19 145.475/437.950
XW-2B 12 Dec 16:11:33 16:14:17 19° 66° (ENE) 16:17:03 145.730 - 145.750
NUDT-PHONESAT 12 Dec 16:12:06 16:13:58 14° 63° (ENE) 16:15:51 437.300
XW-2F 12 Dec 16:25:22 16:28:30 25° 68° (ENE) 16:31:39 145.980 - 146.000
ISS 12 Dec 16:29:31 16:32:31 31° 11° (NNE) 16:35:31 437.550
CUTE-I 12 Dec 16:29:37 16:34:26 35° 66° (ENE) 16:39:15 437.470
BEESAT 12 Dec 16:29:44 16:33:57 32° 294° (WNW) 16:38:08 436.000
MOZHAYETS 4 12 Dec 16:30:59 16:34:25 21° 297° (WNW) 16:37:51
XW-2C 12 Dec 16:37:52 16:41:22 37° 71° (ENE) 16:44:54 145.795 - 145.815
ITUPSAT 1 12 Dec 16:56:59 17:00:24 20° 299° (WNW) 17:03:48 437.325
HO-68 12 Dec 16:59:57 17:06:29 40° 62° (ENE) 17:13:03 435.675
KKS-1 12 Dec 17:00:31 17:04:48 46° 99° (E) 17:09:03 437.445
SO-50 12 Dec 17:01:20 17:05:33 39° 314° (NW) 17:09:50 436.795
LilacSat-2 12 Dec 17:10:51 17:14:39 81° 256° (WSW) 17:18:31 437.200
XW-2D 12 Dec 17:28:42 17:32:22 51° 261° (W) 17:36:06 145.860 - 145.880
DOVE 4 12 Dec 17:30:13 17:33:27 16° 271° (W) 17:36:39 437.250
nSIGHT-1 12 Dec 17:32:44 17:35:57 72° 26° (NNE) 17:39:09 .
SEEDS 12 Dec 17:33:37 17:37:10 27° 67° (ENE) 17:40:44 437.485
RS-15 12 Dec 17:35:51 17:47:19 42° 330° (NNW) 17:58:35 29.354- 29.394
KAITUO 1B 12 Dec 17:43:13 17:46:50 49° 261° (W) 17:50:30 145.475/437.950
NUDT-PHONESAT 12 Dec 17:43:48 17:47:23 50° 261° (W) 17:51:01 437.300
XW-2B 12 Dec 17:44:45 17:48:14 34° 263° (W) 17:51:45 145.730 - 145.750
CUBESAT XI-V 12 Dec 17:48:27 17:51:12 16° 300° (WNW) 17:53:57 437.345
STARS 12 Dec 17:50:19 17:54:39 62° 101° (ESE) 17:58:57 437.465
CUTE 1.7 + AOD 2 12 Dec 17:51:06 17:55:18 65° 74° (ENE) 17:59:33 437.475
AO-73 12 Dec 17:52:18 17:53:38 11° 60° (ENE) 17:54:59 145.935
O/OREOS (USA 219) 12 Dec 17:56:19 18:00:44 51° 61° (ENE) 18:05:06 437.305
XW-2F 12 Dec 17:59:22 18:02:31 25° 265° (W) 18:05:43 145.980 - 146.000
AAUSAT CUBESAT 2 12 Dec 18:00:05 18:03:23 23° 66° (ENE) 18:06:41 437.432
ISS 12 Dec 18:05:57 18:09:15 80° 213° (SSW) 18:12:32 437.550
CUTE-I 12 Dec 18:09:32 18:14:26 35° 263° (W) 18:19:22 437.470
XW-2C 12 Dec 18:13:08 18:15:41 17° 268° (W) 18:18:16 145.795 - 145.815
